Year,Month,Day,Hour,Minute,Value (Times are PST for temperature in C)
2020,12,05,00,00,5.20
2020,12,05,00,01,5.20
2020,12,05,00,02,5.20
2020,12,05,00,03,5.20
2020,12,05,00,04,5.20
2020,12,05,00,05,5.20
2020,12,05,00,06,5.20
2020,12,05,00,07,5.20
2020,12,05,00,08,5.20
2020,12,05,00,09,5.20
2020,12,05,00,10,5.20
2020,12,05,00,11,5.30
2020,12,05,00,12,5.30
2020,12,05,00,13,5.30
2020,12,05,00,14,5.30
2020,12,05,00,15,5.30
2020,12,05,00,16,5.30
2020,12,05,00,17,5.30
2020,12,05,00,18,5.30
2020,12,05,00,19,5.30
2020,12,05,00,20,5.30
2020,12,05,00,21,5.30
2020,12,05,00,22,5.30
2020,12,05,00,23,5.30
2020,12,05,00,24,5.30
2020,12,05,00,25,5.30
2020,12,05,00,26,5.30
2020,12,05,00,27,5.30
2020,12,05,00,28,5.30
2020,12,05,00,29,5.20
2020,12,05,00,30,5.20
2020,12,05,00,31,5.20
2020,12,05,00,32,5.20
2020,12,05,00,33,5.20
2020,12,05,00,34,5.20
2020,12,05,00,35,5.20
2020,12,05,00,36,5.20
2020,12,05,00,37,5.20
2020,12,05,00,38,5.20
2020,12,05,00,39,5.20
2020,12,05,00,40,5.20
2020,12,05,00,41,5.20
2020,12,05,00,42,5.20
2020,12,05,00,43,5.20
2020,12,05,00,44,5.20
2020,12,05,00,45,5.20
2020,12,05,00,46,5.20
2020,12,05,00,47,5.20
2020,12,05,00,48,5.10
2020,12,05,00,49,5.10
2020,12,05,00,50,5.10
2020,12,05,00,51,5.10
2020,12,05,00,52,5.10
2020,12,05,00,53,5.10
2020,12,05,00,54,5.10
2020,12,05,00,55,5.10
2020,12,05,00,56,5.10
2020,12,05,00,57,5.10
2020,12,05,00,58,5.10
2020,12,05,00,59,5.10
2020,12,05,01,00,5.10
2020,12,05,01,01,5.10
2020,12,05,01,02,5.00
2020,12,05,01,03,5.00
2020,12,05,01,04,5.00
2020,12,05,01,05,5.00
2020,12,05,01,06,5.00
2020,12,05,01,07,5.00
2020,12,05,01,08,5.00
2020,12,05,01,09,4.90
2020,12,05,01,10,4.90
2020,12,05,01,11,4.90
2020,12,05,01,12,4.90
2020,12,05,01,13,4.90
2020,12,05,01,14,4.80
2020,12,05,01,15,4.80
2020,12,05,01,16,4.80
2020,12,05,01,17,4.90
2020,12,05,01,18,4.90
2020,12,05,01,19,4.90
2020,12,05,01,20,4.90
2020,12,05,01,21,4.90
2020,12,05,01,22,4.90
2020,12,05,01,23,5.00
2020,12,05,01,24,5.10
2020,12,05,01,25,5.10
2020,12,05,01,26,5.10
2020,12,05,01,27,5.20
2020,12,05,01,28,5.20
2020,12,05,01,29,5.20
2020,12,05,01,30,5.20
2020,12,05,01,31,5.20
2020,12,05,01,32,5.20
2020,12,05,01,33,5.20
2020,12,05,01,34,5.20
2020,12,05,01,35,5.30
2020,12,05,01,36,5.30
2020,12,05,01,37,5.30
2020,12,05,01,38,5.30
2020,12,05,01,39,5.20
2020,12,05,01,40,5.20
2020,12,05,01,41,5.20
2020,12,05,01,42,5.20
2020,12,05,01,43,5.20
2020,12,05,01,44,5.30
2020,12,05,01,45,5.30
2020,12,05,01,46,5.30
2020,12,05,01,47,5.30
2020,12,05,01,48,5.30
2020,12,05,01,49,5.30
2020,12,05,01,50,5.30
2020,12,05,01,51,5.30
2020,12,05,01,52,5.30
2020,12,05,01,53,5.30
2020,12,05,01,54,5.30
2020,12,05,01,55,5.30
2020,12,05,01,56,5.30
2020,12,05,01,57,5.30
2020,12,05,01,58,5.20
2020,12,05,01,59,5.20
2020,12,05,02,00,5.20
2020,12,05,02,01,5.20
2020,12,05,02,02,5.20
2020,12,05,02,03,5.20
2020,12,05,02,04,5.30
2020,12,05,02,05,5.30
2020,12,05,02,06,5.30
2020,12,05,02,07,5.30
2020,12,05,02,08,5.30
2020,12,05,02,09,5.30
2020,12,05,02,10,5.30
2020,12,05,02,11,5.30
2020,12,05,02,12,5.30
2020,12,05,02,13,5.30
2020,12,05,02,14,5.40
2020,12,05,02,15,5.40
2020,12,05,02,16,5.40
2020,12,05,02,17,5.40
2020,12,05,02,18,5.40
2020,12,05,02,19,5.40
2020,12,05,02,20,5.40
2020,12,05,02,21,5.40
2020,12,05,02,22,5.40
2020,12,05,02,23,5.40
2020,12,05,02,24,5.40
2020,12,05,02,25,5.40
2020,12,05,02,26,5.40
2020,12,05,02,27,5.40
2020,12,05,02,28,5.40
2020,12,05,02,29,5.40
2020,12,05,02,30,5.40
2020,12,05,02,31,5.40
2020,12,05,02,32,5.40
2020,12,05,02,33,5.50
2020,12,05,02,34,5.50
2020,12,05,02,35,5.40
2020,12,05,02,36,5.40
2020,12,05,02,37,5.40
2020,12,05,02,38,5.40
2020,12,05,02,39,5.40
2020,12,05,02,40,5.40
2020,12,05,02,41,5.40
2020,12,05,02,42,5.40
2020,12,05,02,43,5.40
2020,12,05,02,44,5.40
2020,12,05,02,45,5.40
2020,12,05,02,46,5.40
2020,12,05,02,47,5.40
2020,12,05,02,48,5.40
2020,12,05,02,49,5.40
2020,12,05,02,50,5.40
2020,12,05,02,51,5.40
2020,12,05,02,52,5.40
2020,12,05,02,53,5.40
2020,12,05,02,54,5.40
2020,12,05,02,55,5.30
2020,12,05,02,56,5.30
2020,12,05,02,57,5.30
2020,12,05,02,58,5.30
2020,12,05,02,59,5.30
2020,12,05,03,00,5.20
2020,12,05,03,01,5.20
2020,12,05,03,02,5.20
2020,12,05,03,03,5.20
2020,12,05,03,04,5.10
2020,12,05,03,05,5.10
2020,12,05,03,06,5.10
2020,12,05,03,07,5.10
2020,12,05,03,08,5.10
2020,12,05,03,09,5.10
2020,12,05,03,10,5.10
2020,12,05,03,11,5.00
2020,12,05,03,12,5.00
2020,12,05,03,13,5.00
2020,12,05,03,14,5.00
2020,12,05,03,15,5.00
2020,12,05,03,16,5.00
2020,12,05,03,17,5.00
2020,12,05,03,18,5.00
2020,12,05,03,19,4.90
2020,12,05,03,20,4.90
2020,12,05,03,21,4.90
2020,12,05,03,22,5.00
2020,12,05,03,23,5.00
2020,12,05,03,24,5.00
2020,12,05,03,25,5.00
2020,12,05,03,26,5.10
2020,12,05,03,27,5.10
2020,12,05,03,28,5.10
2020,12,05,03,29,5.10
2020,12,05,03,30,5.10
2020,12,05,03,31,5.10
2020,12,05,03,32,5.10
2020,12,05,03,33,5.10
2020,12,05,03,34,5.10
2020,12,05,03,35,5.10
2020,12,05,03,36,5.10
2020,12,05,03,37,5.10
2020,12,05,03,38,5.10
2020,12,05,03,39,5.10
2020,12,05,03,40,5.10
2020,12,05,03,41,5.10
2020,12,05,03,42,5.00
2020,12,05,03,43,5.00
2020,12,05,03,44,5.00
2020,12,05,03,45,5.00
2020,12,05,03,46,4.90
2020,12,05,03,47,4.90
2020,12,05,03,48,4.90
2020,12,05,03,49,4.90
2020,12,05,03,50,4.90
2020,12,05,03,51,4.90
2020,12,05,03,52,4.90
2020,12,05,03,53,4.90
2020,12,05,03,54,4.90
2020,12,05,03,55,4.90
2020,12,05,03,56,4.90
2020,12,05,03,57,4.90
2020,12,05,03,58,4.90
2020,12,05,03,59,4.90
2020,12,05,04,00,4.90
2020,12,05,04,01,4.90
2020,12,05,04,02,4.80
2020,12,05,04,03,4.80
2020,12,05,04,04,4.80
2020,12,05,04,05,4.80
2020,12,05,04,06,4.90
2020,12,05,04,07,4.90
2020,12,05,04,08,4.90
2020,12,05,04,09,4.90
2020,12,05,04,10,4.90
2020,12,05,04,11,5.00
2020,12,05,04,12,5.00
2020,12,05,04,13,5.10
2020,12,05,04,14,5.10
2020,12,05,04,15,5.10
2020,12,05,04,16,5.20
2020,12,05,04,17,5.20
2020,12,05,04,18,5.20
2020,12,05,04,19,5.20
2020,12,05,04,20,5.30
2020,12,05,04,21,5.30
2020,12,05,04,22,5.30
2020,12,05,04,23,5.30
2020,12,05,04,24,5.30
2020,12,05,04,25,5.30
2020,12,05,04,26,5.30
2020,12,05,04,27,5.30
2020,12,05,04,28,5.30
2020,12,05,04,29,5.30
2020,12,05,04,30,5.30
2020,12,05,04,31,5.30
2020,12,05,04,32,5.30
2020,12,05,04,33,5.30
2020,12,05,04,34,5.40
2020,12,05,04,35,5.40
2020,12,05,04,36,5.30
2020,12,05,04,37,5.30
2020,12,05,04,38,5.30
2020,12,05,04,39,5.30
2020,12,05,04,40,5.30
2020,12,05,04,41,5.30
2020,12,05,04,42,5.20
2020,12,05,04,43,5.20
2020,12,05,04,44,5.20
2020,12,05,04,45,5.20
2020,12,05,04,46,5.20
2020,12,05,04,47,5.20
2020,12,05,04,48,5.20
2020,12,05,04,49,5.30
2020,12,05,04,50,5.30
2020,12,05,04,51,5.30
2020,12,05,04,52,5.30
2020,12,05,04,53,5.30
2020,12,05,04,54,5.20
2020,12,05,04,55,5.20
2020,12,05,04,56,5.20
2020,12,05,04,57,5.10
2020,12,05,04,58,5.10
2020,12,05,04,59,5.10
2020,12,05,05,00,5.10
2020,12,05,05,01,5.10
2020,12,05,05,02,5.10
2020,12,05,05,03,5.10
2020,12,05,05,04,5.10
2020,12,05,05,05,5.10
2020,12,05,05,06,5.10
2020,12,05,05,07,5.10
2020,12,05,05,08,5.10
2020,12,05,05,09,5.10
2020,12,05,05,10,5.10
2020,12,05,05,11,5.10
2020,12,05,05,12,5.10
2020,12,05,05,13,5.10
2020,12,05,05,14,5.10
2020,12,05,05,15,5.20
2020,12,05,05,16,5.20
2020,12,05,05,17,5.20
2020,12,05,05,18,5.20
2020,12,05,05,19,5.30
2020,12,05,05,20,5.30
2020,12,05,05,21,5.40
2020,12,05,05,22,5.40
2020,12,05,05,23,5.40
2020,12,05,05,24,5.50
2020,12,05,05,25,5.50
2020,12,05,05,26,5.60
2020,12,05,05,27,5.60
2020,12,05,05,28,5.70
2020,12,05,05,29,5.70
2020,12,05,05,30,5.70
2020,12,05,05,31,5.70
2020,12,05,05,32,5.70
2020,12,05,05,33,5.70
2020,12,05,05,34,5.70
2020,12,05,05,35,5.70
2020,12,05,05,36,5.70
2020,12,05,05,37,5.70
2020,12,05,05,38,5.70
2020,12,05,05,39,5.70
2020,12,05,05,40,5.80
2020,12,05,05,41,5.80
2020,12,05,05,42,5.80
2020,12,05,05,43,5.80
2020,12,05,05,44,5.80
2020,12,05,05,45,5.80
2020,12,05,05,46,5.80
2020,12,05,05,47,5.80
2020,12,05,05,48,5.80
2020,12,05,05,49,5.80
2020,12,05,05,50,5.80
2020,12,05,05,51,5.80
2020,12,05,05,52,5.80
2020,12,05,05,53,5.80
2020,12,05,05,54,5.80
2020,12,05,05,55,5.80
2020,12,05,05,56,5.80
2020,12,05,08,11,5.30
2020,12,05,08,12,5.30
2020,12,05,08,13,5.30
2020,12,05,08,14,5.30
2020,12,05,08,15,5.30
2020,12,05,08,16,5.30
2020,12,05,08,17,5.30
2020,12,05,08,18,5.30
2020,12,05,08,19,5.30
2020,12,05,08,20,5.30
2020,12,05,08,21,5.30
2020,12,05,08,22,5.30
2020,12,05,08,23,5.30
2020,12,05,08,24,5.30
2020,12,05,08,25,5.30
2020,12,05,08,26,5.40
2020,12,05,08,27,5.40
2020,12,05,08,28,5.40
2020,12,05,08,29,5.40
2020,12,05,08,30,5.40
2020,12,05,08,31,5.50
2020,12,05,08,32,5.50
2020,12,05,08,33,5.50
2020,12,05,08,34,5.60
2020,12,05,08,35,5.60
2020,12,05,08,36,5.60
2020,12,05,08,37,5.70
2020,12,05,08,38,5.70
2020,12,05,08,39,5.70
2020,12,05,08,40,5.70
2020,12,05,08,41,5.80
2020,12,05,08,42,5.80
2020,12,05,08,43,5.80
2020,12,05,08,44,5.80
2020,12,05,08,45,5.80
2020,12,05,08,46,5.90
2020,12,05,08,47,5.90
2020,12,05,08,48,6.00
2020,12,05,08,49,6.10
2020,12,05,08,50,6.20
2020,12,05,08,51,6.30
2020,12,05,08,52,6.50
2020,12,05,08,53,6.60
2020,12,05,08,54,6.80
2020,12,05,08,55,6.80
2020,12,05,08,56,6.90
2020,12,05,08,57,7.00
2020,12,05,08,58,7.10
2020,12,05,08,59,7.20
2020,12,05,09,00,7.20
2020,12,05,09,01,7.30
2020,12,05,09,02,7.30
2020,12,05,09,03,7.30
2020,12,05,09,04,7.30
2020,12,05,09,05,7.30
2020,12,05,09,06,7.20
2020,12,05,09,07,7.20
2020,12,05,09,08,7.20
2020,12,05,09,09,7.20
2020,12,05,09,10,7.20
2020,12,05,09,11,7.20
2020,12,05,09,12,7.30
2020,12,05,09,13,7.30
2020,12,05,09,14,7.30
2020,12,05,09,15,7.30
2020,12,05,09,16,7.30
2020,12,05,09,17,7.30
2020,12,05,09,18,7.30
2020,12,05,09,19,7.30
2020,12,05,09,20,7.40
2020,12,05,09,21,7.40
2020,12,05,09,22,7.50
2020,12,05,09,23,7.60
2020,12,05,09,24,7.60
2020,12,05,09,25,7.70
2020,12,05,09,26,7.70
2020,12,05,09,27,7.80
2020,12,05,09,28,7.80
2020,12,05,09,29,7.80
2020,12,05,09,30,7.90
2020,12,05,09,31,7.90
2020,12,05,09,32,8.00
2020,12,05,09,33,8.10
2020,12,05,09,34,8.20
2020,12,05,09,35,8.30
2020,12,05,09,36,8.30
2020,12,05,09,37,8.40
2020,12,05,09,38,8.50
2020,12,05,09,39,8.50
2020,12,05,09,40,8.60
2020,12,05,09,41,8.60
2020,12,05,09,42,8.60
2020,12,05,09,43,8.60
2020,12,05,09,44,8.60
2020,12,05,09,45,8.70
2020,12,05,09,46,8.70
2020,12,05,09,47,8.70
2020,12,05,09,48,8.80
2020,12,05,09,49,8.80
2020,12,05,09,50,8.80
2020,12,05,09,51,8.80
2020,12,05,09,52,8.80
2020,12,05,09,53,8.80
2020,12,05,09,54,8.90
2020,12,05,09,55,8.90
2020,12,05,09,56,9.00
2020,12,05,09,57,9.10
2020,12,05,09,58,9.10
2020,12,05,09,59,9.10
2020,12,05,10,00,9.10
2020,12,05,10,01,9.10
2020,12,05,10,02,9.10
2020,12,05,10,03,9.10
2020,12,05,10,04,9.20
2020,12,05,10,05,9.20
2020,12,05,10,06,9.20
2020,12,05,10,07,9.20
2020,12,05,10,08,9.20
2020,12,05,10,09,9.20
2020,12,05,10,10,9.20
2020,12,05,10,11,9.20
2020,12,05,10,12,9.20
2020,12,05,10,13,9.20
2020,12,05,10,14,9.20
2020,12,05,10,15,9.30
2020,12,05,10,16,9.30
2020,12,05,10,17,9.30
2020,12,05,10,18,9.30
2020,12,05,10,19,9.30
2020,12,05,10,20,9.30
2020,12,05,10,21,9.30
2020,12,05,10,22,9.30
2020,12,05,10,23,9.30
2020,12,05,10,24,9.30
2020,12,05,10,25,9.30
2020,12,05,10,26,9.30
2020,12,05,10,27,9.30
2020,12,05,10,28,9.30
2020,12,05,10,29,9.30
2020,12,05,10,30,9.40
2020,12,05,10,31,9.40
2020,12,05,10,32,9.40
2020,12,05,10,33,9.40
2020,12,05,10,34,9.50
2020,12,05,10,35,9.50
2020,12,05,10,36,9.60
2020,12,05,10,37,9.60
2020,12,05,10,38,9.70
2020,12,05,10,39,9.70
2020,12,05,10,40,9.80
2020,12,05,10,41,9.80
2020,12,05,10,42,9.80
2020,12,05,10,43,9.80
2020,12,05,10,44,9.80
2020,12,05,10,45,9.80
2020,12,05,10,46,9.80
2020,12,05,10,47,9.70
2020,12,05,10,48,9.70
2020,12,05,10,49,9.80
2020,12,05,10,50,9.80
2020,12,05,10,51,9.90
2020,12,05,10,52,9.90
2020,12,05,10,53,10.00
2020,12,05,10,54,10.10
2020,12,05,10,55,10.10
2020,12,05,10,56,10.20
2020,12,05,10,57,10.20
2020,12,05,10,58,10.20
2020,12,05,10,59,10.20
2020,12,05,11,00,10.20
2020,12,05,11,01,10.20
2020,12,05,11,02,10.20
2020,12,05,11,03,10.20
2020,12,05,11,04,10.20
2020,12,05,11,05,10.20
2020,12,05,11,06,10.20
2020,12,05,11,07,10.20
2020,12,05,11,08,10.20
2020,12,05,11,09,10.20
2020,12,05,11,10,10.20
2020,12,05,11,11,10.20
2020,12,05,11,12,10.20
2020,12,05,11,13,10.10
2020,12,05,11,14,10.10
2020,12,05,11,15,10.10
2020,12,05,11,16,10.10
2020,12,05,11,17,10.10
2020,12,05,11,18,10.00
2020,12,05,11,19,10.00
2020,12,05,11,20,10.00
2020,12,05,11,21,10.00
2020,12,05,11,22,10.00
2020,12,05,11,23,10.10
2020,12,05,11,24,10.10
2020,12,05,11,25,10.10
2020,12,05,11,26,10.00
2020,12,05,11,27,10.00
2020,12,05,11,28,9.90
2020,12,05,11,29,9.90
2020,12,05,11,30,9.90
2020,12,05,11,31,9.90
2020,12,05,11,32,9.90
2020,12,05,11,33,9.90
2020,12,05,11,34,9.90
2020,12,05,11,35,9.90
2020,12,05,11,36,9.90
2020,12,05,11,37,10.00
2020,12,05,11,38,10.00
2020,12,05,11,39,10.10
2020,12,05,11,40,10.10
2020,12,05,11,41,10.10
2020,12,05,11,42,10.10
2020,12,05,11,43,10.10
2020,12,05,11,44,10.20
2020,12,05,11,45,10.20
2020,12,05,11,46,10.20
2020,12,05,11,47,10.20
2020,12,05,11,48,10.20
2020,12,05,11,49,10.20
2020,12,05,11,50,10.20
2020,12,05,11,51,10.20
2020,12,05,11,52,10.20
2020,12,05,11,53,10.30
2020,12,05,11,54,10.30
2020,12,05,11,55,10.30
2020,12,05,11,56,10.30
2020,12,05,11,57,10.30
2020,12,05,11,58,10.30
2020,12,05,11,59,10.30
2020,12,05,12,00,10.40
2020,12,05,12,01,10.40
2020,12,05,12,02,10.40
2020,12,05,12,03,10.40
2020,12,05,12,04,10.40
2020,12,05,12,05,10.50
2020,12,05,12,06,10.50
2020,12,05,12,07,10.50
2020,12,05,12,08,10.50
2020,12,05,12,09,10.50
2020,12,05,12,10,10.60
2020,12,05,12,11,10.60
2020,12,05,12,12,10.60
2020,12,05,12,13,10.60
2020,12,05,12,14,10.70
2020,12,05,12,15,10.70
2020,12,05,12,16,10.70
2020,12,05,12,17,10.80
2020,12,05,12,18,10.80
2020,12,05,12,19,10.80
2020,12,05,12,20,10.90
2020,12,05,12,21,11.00
2020,12,05,12,22,11.00
2020,12,05,12,23,11.10
2020,12,05,12,24,11.10
2020,12,05,12,25,11.20
2020,12,05,12,26,11.10
2020,12,05,12,27,11.10
2020,12,05,12,28,11.00
2020,12,05,12,29,10.90
2020,12,05,12,30,11.00
2020,12,05,12,31,11.00
2020,12,05,12,32,11.00
2020,12,05,12,33,10.90
2020,12,05,12,34,10.90
2020,12,05,12,35,11.00
2020,12,05,12,36,11.00
2020,12,05,12,37,11.10
2020,12,05,12,38,11.10
2020,12,05,12,39,11.10
2020,12,05,12,40,11.10
2020,12,05,12,41,11.10
2020,12,05,12,42,11.10
2020,12,05,12,43,11.10
2020,12,05,12,44,11.10
2020,12,05,12,45,11.10
2020,12,05,12,46,11.10
2020,12,05,12,47,11.10
2020,12,05,12,48,11.00
2020,12,05,12,49,11.00
2020,12,05,12,50,11.00
2020,12,05,12,51,11.00
2020,12,05,12,52,11.00
2020,12,05,12,53,11.00
2020,12,05,12,54,10.90
2020,12,05,12,55,10.90
2020,12,05,12,56,10.90
2020,12,05,12,57,10.90
2020,12,05,12,58,10.90
2020,12,05,12,59,10.90
2020,12,05,13,00,10.90
2020,12,05,13,01,11.00
2020,12,05,13,02,11.00
2020,12,05,13,03,11.10
2020,12,05,13,04,11.10
2020,12,05,13,05,11.10
2020,12,05,13,06,11.10
2020,12,05,13,07,11.00
2020,12,05,13,08,11.00
2020,12,05,13,09,11.00
2020,12,05,13,10,11.00
2020,12,05,13,11,10.90
2020,12,05,13,12,10.90
2020,12,05,13,13,10.90
2020,12,05,13,14,10.90
2020,12,05,13,15,10.90
2020,12,05,13,16,11.00
2020,12,05,13,17,11.00
2020,12,05,13,18,11.10
2020,12,05,13,19,11.10
2020,12,05,13,20,11.20
2020,12,05,13,21,11.20
2020,12,05,13,22,11.20
2020,12,05,13,23,11.20
2020,12,05,13,24,11.20
2020,12,05,13,25,11.20
2020,12,05,13,26,11.20
2020,12,05,13,27,11.20
2020,12,05,13,28,11.20
2020,12,05,13,29,11.20
2020,12,05,13,30,11.20
2020,12,05,13,31,11.20
2020,12,05,13,32,11.30
2020,12,05,13,33,11.20
2020,12,05,13,34,11.20
2020,12,05,13,35,11.20
2020,12,05,13,36,11.20
2020,12,05,13,37,11.20
2020,12,05,13,38,11.20
2020,12,05,13,39,11.20
2020,12,05,13,40,11.20
2020,12,05,13,41,11.20
2020,12,05,13,42,11.20
2020,12,05,13,43,11.30
2020,12,05,13,44,11.30
2020,12,05,13,45,11.40
2020,12,05,13,46,11.40
2020,12,05,13,47,11.50
2020,12,05,13,48,11.60
2020,12,05,13,49,11.60
2020,12,05,13,50,11.60
2020,12,05,13,51,11.70
2020,12,05,13,52,11.70
2020,12,05,13,53,11.80
2020,12,05,13,54,11.80
2020,12,05,13,55,11.80
2020,12,05,13,56,11.80
2020,12,05,13,57,11.80
2020,12,05,13,58,11.80
2020,12,05,13,59,11.80
2020,12,05,14,00,11.90
2020,12,05,14,01,12.00
2020,12,05,14,02,12.00
2020,12,05,14,03,12.10
2020,12,05,14,04,12.20
2020,12,05,14,05,12.30
2020,12,05,14,06,12.30
2020,12,05,14,07,12.40
2020,12,05,14,08,12.40
2020,12,05,14,09,12.40
2020,12,05,14,10,12.40
2020,12,05,14,11,12.30
2020,12,05,14,12,12.30
2020,12,05,14,13,12.30
2020,12,05,14,14,12.40
2020,12,05,14,15,12.40
2020,12,05,14,16,12.40
2020,12,05,14,17,12.30
2020,12,05,14,18,12.30
2020,12,05,14,19,12.20
2020,12,05,14,20,12.20
2020,12,05,14,21,12.20
2020,12,05,14,22,12.20
2020,12,05,14,23,12.10
2020,12,05,14,24,12.10
2020,12,05,14,25,12.10
2020,12,05,14,26,12.10
2020,12,05,14,27,12.00
2020,12,05,14,28,12.10
2020,12,05,14,29,12.10
2020,12,05,14,30,12.20
2020,12,05,14,31,12.20
2020,12,05,14,32,12.30
2020,12,05,14,33,12.40
2020,12,05,14,34,12.50
2020,12,05,14,35,12.50
2020,12,05,14,36,12.50
2020,12,05,14,37,12.50
2020,12,05,14,38,12.50
2020,12,05,14,39,12.50
2020,12,05,14,40,12.40
2020,12,05,14,41,12.40
2020,12,05,14,42,12.30
2020,12,05,14,43,12.30
2020,12,05,14,44,12.20
2020,12,05,14,45,12.20
2020,12,05,14,46,12.10
2020,12,05,14,47,12.10
2020,12,05,14,48,12.00
2020,12,05,14,49,12.00
2020,12,05,14,50,11.90
2020,12,05,14,51,11.90
2020,12,05,14,52,11.80
2020,12,05,14,53,11.80
2020,12,05,14,54,11.80
2020,12,05,14,55,11.70
2020,12,05,14,56,11.70
2020,12,05,14,57,11.70
2020,12,05,14,58,11.70
2020,12,05,14,59,11.70
2020,12,05,15,00,11.70
2020,12,05,15,01,11.80
2020,12,05,15,02,11.80
2020,12,05,15,03,11.80
2020,12,05,15,04,11.80
2020,12,05,15,05,11.80
2020,12,05,15,06,11.80
2020,12,05,15,07,11.80
2020,12,05,15,08,11.70
2020,12,05,15,09,11.70
2020,12,05,15,10,11.70
2020,12,05,15,11,11.70
2020,12,05,15,12,11.70
2020,12,05,15,13,11.70
2020,12,05,15,14,11.70
2020,12,05,15,15,11.70
2020,12,05,15,16,11.80
2020,12,05,15,17,11.80
2020,12,05,15,18,11.80
2020,12,05,15,19,11.80
2020,12,05,15,20,11.80
2020,12,05,15,21,11.80
2020,12,05,15,22,11.90
2020,12,05,15,23,11.90
2020,12,05,15,24,12.00
2020,12,05,15,25,12.00
2020,12,05,15,26,12.10
2020,12,05,15,27,12.10
2020,12,05,15,28,12.10
2020,12,05,15,29,12.10
2020,12,05,15,30,12.20
2020,12,05,15,31,12.20
2020,12,05,15,32,12.20
2020,12,05,15,33,12.20
2020,12,05,15,34,12.20
2020,12,05,15,35,12.20
2020,12,05,15,36,12.20
2020,12,05,15,37,12.10
2020,12,05,15,38,12.10
2020,12,05,15,39,12.10
2020,12,05,15,40,12.10
2020,12,05,15,41,12.10
2020,12,05,15,42,12.10
2020,12,05,15,43,12.00
2020,12,05,15,44,12.00
2020,12,05,15,45,11.90
2020,12,05,15,46,11.90
2020,12,05,15,47,11.80
2020,12,05,15,48,11.70
2020,12,05,15,49,11.60
2020,12,05,15,50,11.50
2020,12,05,15,51,11.50
2020,12,05,15,52,11.40
2020,12,05,15,53,11.30
2020,12,05,15,54,11.30
2020,12,05,15,55,11.20
2020,12,05,15,56,11.20
2020,12,05,15,57,11.10
2020,12,05,15,58,11.10
2020,12,05,15,59,11.00
2020,12,05,16,00,10.90
2020,12,05,16,01,10.90
2020,12,05,16,02,10.80
2020,12,05,16,03,10.80
2020,12,05,16,04,10.70
2020,12,05,16,05,10.60
2020,12,05,16,06,10.60
2020,12,05,16,07,10.50
2020,12,05,16,08,10.50
2020,12,05,16,09,10.40
2020,12,05,16,10,10.30
2020,12,05,16,11,10.30
2020,12,05,16,12,10.20
2020,12,05,16,13,10.20
2020,12,05,16,14,10.10
2020,12,05,16,15,10.10
2020,12,05,16,16,10.10
2020,12,05,16,17,10.00
2020,12,05,16,18,10.00
2020,12,05,16,19,9.90
2020,12,05,16,20,9.90
2020,12,05,16,21,9.90
2020,12,05,16,22,9.80
2020,12,05,16,23,9.80
2020,12,05,16,24,9.70
2020,12,05,16,25,9.70
2020,12,05,16,26,9.60
2020,12,05,16,27,9.60
2020,12,05,16,28,9.60
2020,12,05,16,29,9.50
2020,12,05,16,30,9.50
2020,12,05,16,31,9.40
2020,12,05,16,32,9.40
2020,12,05,16,33,9.30
2020,12,05,16,34,9.30
2020,12,05,16,35,9.20
2020,12,05,16,36,9.20
2020,12,05,16,37,9.20
2020,12,05,16,38,9.10
2020,12,05,16,39,9.00
2020,12,05,16,40,9.00
2020,12,05,16,41,8.90
2020,12,05,16,42,8.90
2020,12,05,16,43,8.80
2020,12,05,16,44,8.80
2020,12,05,16,45,8.70
2020,12,05,16,46,8.60
2020,12,05,16,47,8.60
2020,12,05,16,48,8.50
2020,12,05,16,49,8.40
2020,12,05,16,50,8.40
2020,12,05,16,51,8.30
2020,12,05,16,52,8.30
2020,12,05,16,53,8.30
2020,12,05,16,54,8.20
2020,12,05,16,55,8.20
2020,12,05,16,56,8.20
2020,12,05,16,57,8.10
2020,12,05,16,58,8.10
2020,12,05,16,59,8.00
2020,12,05,17,00,8.00
2020,12,05,17,01,8.00
2020,12,05,17,02,7.90
2020,12,05,17,03,7.90
2020,12,05,17,04,7.90
2020,12,05,17,05,7.80
2020,12,05,17,06,7.80
2020,12,05,17,07,7.80
2020,12,05,17,08,7.70
2020,12,05,17,09,7.70
2020,12,05,17,10,7.60
2020,12,05,17,11,7.50
2020,12,05,17,12,7.40
2020,12,05,17,13,7.30
2020,12,05,17,14,7.30
2020,12,05,17,15,7.30
2020,12,05,17,16,7.30
2020,12,05,17,17,7.30
2020,12,05,17,18,7.30
2020,12,05,17,19,7.30
2020,12,05,17,20,7.30
2020,12,05,17,21,7.30
2020,12,05,17,22,7.30
2020,12,05,17,23,7.30
2020,12,05,17,24,7.30
2020,12,05,17,25,7.30
2020,12,05,17,26,7.30
2020,12,05,17,27,7.20
2020,12,05,17,28,7.20
2020,12,05,17,29,7.20
2020,12,05,17,30,7.20
2020,12,05,17,31,7.20
2020,12,05,17,32,7.20
2020,12,05,17,33,7.10
2020,12,05,17,34,7.10
2020,12,05,17,35,7.10
2020,12,05,17,36,7.00
2020,12,05,17,37,7.00
2020,12,05,17,38,6.90
2020,12,05,17,39,6.90
2020,12,05,17,40,6.90
2020,12,05,17,41,6.80
2020,12,05,17,42,6.80
2020,12,05,17,43,6.80
2020,12,05,17,44,6.70
2020,12,05,17,45,6.70
2020,12,05,17,46,6.70
2020,12,05,17,47,6.70
2020,12,05,17,48,6.70
2020,12,05,17,49,6.60
2020,12,05,17,50,6.60
2020,12,05,17,51,6.60
2020,12,05,17,52,6.60
2020,12,05,17,53,6.50
2020,12,05,17,54,6.50
2020,12,05,17,55,6.40
2020,12,05,17,56,6.40
2020,12,05,17,57,6.40
2020,12,05,17,58,6.40
2020,12,05,17,59,6.40
2020,12,05,18,00,6.40
2020,12,05,18,01,6.40
2020,12,05,18,02,6.40
2020,12,05,18,03,6.50
2020,12,05,18,04,6.50
2020,12,05,18,05,6.60
2020,12,05,18,06,6.60
2020,12,05,18,07,6.60
2020,12,05,18,08,6.70
2020,12,05,18,09,6.70
2020,12,05,18,10,6.80
2020,12,05,18,11,6.80
2020,12,05,18,12,6.90
2020,12,05,18,13,6.90
2020,12,05,18,14,6.90
2020,12,05,18,15,7.00
2020,12,05,18,16,7.10
2020,12,05,18,17,7.10
2020,12,05,18,18,7.10
2020,12,05,18,19,7.20
2020,12,05,18,20,7.20
2020,12,05,18,21,7.20
2020,12,05,18,22,7.30
2020,12,05,18,23,7.30
2020,12,05,18,24,7.30
2020,12,05,18,25,7.30
2020,12,05,18,26,7.30
2020,12,05,18,27,7.30
2020,12,05,18,28,7.30
2020,12,05,18,29,7.40
2020,12,05,18,30,7.40
2020,12,05,18,31,7.40
2020,12,05,18,32,7.40
2020,12,05,18,33,7.40
2020,12,05,18,34,7.40
2020,12,05,18,35,7.40
2020,12,05,18,36,7.40
2020,12,05,18,37,7.40
2020,12,05,18,38,7.40
2020,12,05,18,39,7.40
2020,12,05,18,40,7.40
2020,12,05,18,41,7.40
2020,12,05,18,42,7.30
2020,12,05,18,43,7.30
2020,12,05,18,44,7.30
2020,12,05,18,45,7.30
2020,12,05,18,46,7.30
2020,12,05,18,47,7.30
2020,12,05,18,48,7.20
2020,12,05,18,49,7.20
2020,12,05,18,50,7.20
2020,12,05,18,51,7.20
2020,12,05,18,52,7.20
2020,12,05,18,53,7.20
2020,12,05,18,54,7.20
2020,12,05,18,55,7.20
2020,12,05,18,56,7.20
2020,12,05,18,57,7.20
2020,12,05,18,58,7.20
2020,12,05,18,59,7.10
2020,12,05,19,00,7.10
2020,12,05,19,01,7.10
2020,12,05,19,02,7.10
2020,12,05,19,03,7.00
2020,12,05,19,04,7.00
2020,12,05,19,05,6.90
2020,12,05,19,06,6.90
2020,12,05,19,07,6.90
2020,12,05,19,08,6.80
2020,12,05,19,09,6.80
2020,12,05,19,10,6.70
2020,12,05,19,11,6.70
2020,12,05,19,12,6.70
2020,12,05,19,13,6.70
2020,12,05,19,14,6.60
2020,12,05,19,15,6.60
2020,12,05,19,16,6.60
2020,12,05,19,17,6.60
2020,12,05,19,18,6.60
2020,12,05,19,19,6.60
2020,12,05,19,20,6.60
2020,12,05,19,21,6.60
2020,12,05,19,22,6.60
2020,12,05,19,23,6.50
2020,12,05,19,24,6.50
2020,12,05,19,25,6.50
2020,12,05,19,26,6.40
2020,12,05,19,27,6.40
2020,12,05,19,28,6.40
2020,12,05,19,29,6.40
2020,12,05,19,30,6.40
2020,12,05,19,31,6.40
2020,12,05,19,32,6.40
2020,12,05,19,33,6.40
2020,12,05,19,34,6.40
2020,12,05,19,35,6.40
2020,12,05,19,36,6.40
2020,12,05,19,37,6.40
2020,12,05,19,38,6.40
2020,12,05,19,39,6.40
2020,12,05,19,40,6.40
2020,12,05,19,41,6.40
2020,12,05,19,42,6.40
2020,12,05,19,43,6.40
2020,12,05,19,44,6.40
2020,12,05,19,45,6.30
2020,12,05,19,46,6.40
2020,12,05,19,47,6.30
2020,12,05,19,48,6.30
2020,12,05,19,49,6.30
2020,12,05,19,50,6.30
2020,12,05,19,51,6.20
2020,12,05,19,52,6.20
2020,12,05,19,53,6.20
2020,12,05,19,54,6.20
2020,12,05,19,55,6.20
2020,12,05,19,56,6.20
2020,12,05,19,57,6.20
2020,12,05,19,58,6.10
2020,12,05,19,59,6.20
2020,12,05,20,00,6.10
2020,12,05,20,01,6.10
2020,12,05,20,02,6.10
2020,12,05,20,03,6.10
2020,12,05,20,04,6.10
2020,12,05,20,05,6.10
2020,12,05,20,06,6.20